Portage, MI

10:57 AM EDT on August 25, 2016 (GMT -0400)
Kalamazoo-Battle Creek International

Weather History for KAZO - November, 2013

Change the Weather History Date:

Monday, November 11, 2013

  Actual Average Record
Temperature  
Mean Temperature 35 °F 42 °F  
Max Temperature 44 °F 50 °F 70 °F (1964)
Min Temperature 25 °F 35 °F 19 °F (1950)
Degree Days  
Heating Degree Days 30 22  
Month to date heating degree days 230 227  
Since 1 July heating degree days 774 819  
Cooling Degree Days 0 0  
Month to date cooling degree days 0 0  
Year to date cooling degree days 725 675  
Moisture  
Dew Point 29 °F    
Average Humidity 72    
Maximum Humidity 86    
Minimum Humidity 58    
Precipitation  
Precipitation 0.14 in 0.11 in 0.45 in (1967)
Month to date precipitation 1.09 1.21  
Year to date precipitation 36.57 31.95  
Sea Level Pressure  
Sea Level Pressure 30.19 in    
Wind  
Wind Speed 11 mph (NW)    
Max Wind Speed 21 mph    
Max Gust Speed 28 mph    
Visibility 8 miles    
Events Rain , Snow    
T = Trace of Precipitation, MM = Missing Value Source: NWS Daily Summary

Daily Weather History Graph

Daily Weather History Graph

Search for Another Location

Airport or City:

Trip Planner

Search our weather history database for the weather conditions in past years. The results will help you decide how hot, cold, wet, or windy it might be!

Date:

Astronomy

Nov. 11, 2013 Rise Set
Actual Time 7:28 AM EST 5:24 PM EST
Civil Twilight 6:58 AM EST 5:53 PM EST
Nautical Twilight 6:24 AM EST 6:27 PM EST
Astronomical Twilight 5:51 AM EST 7:00 PM EST
Moon 2:10 PM EST (11/11) 1:05 AM EST (11/11)
Length of Visible Light 10h 55m
Length of Day
9h 55m
Waxing Gibbous, 66% of the Moon is Illuminated
Nov 11
Waxing Gibbous
Nov 17
Full
Nov 25
Last Quarter
Dec 2
New
Dec 9
First Quarter

Hourly Weather History & Observations

Time (EST) Temp. Windchill Dew Point Humidity Pressure Visibility Wind Dir Wind Speed Gust Speed Precip Events Conditions
12:53 AM 39.0 °F 32.8 °F 30.9 °F 73% 30.23 in 10.0 mi SSW 9.2 mph - N/A   Scattered Clouds
1:53 AM 39.9 °F 35.8 °F 30.0 °F 68% 30.21 in 10.0 mi SW 5.8 mph - N/A   Overcast
2:53 AM 39.9 °F 33.9 °F 30.9 °F 70% 30.19 in 10.0 mi SSW 9.2 mph - N/A   Overcast
3:53 AM 39.9 °F 34.5 °F 30.0 °F 68% 30.16 in 10.0 mi SSW 8.1 mph - N/A   Overcast
4:53 AM 41.0 °F 33.9 °F 30.0 °F 65% 30.14 in 10.0 mi SW 12.7 mph - N/A   Overcast
5:53 AM 42.1 °F 35.2 °F 30.9 °F 65% 30.12 in 10.0 mi SSW 12.7 mph - N/A   Overcast
6:53 AM 42.1 °F 35.7 °F 30.9 °F 65% 30.09 in 10.0 mi SSW 11.5 mph - N/A   Overcast
7:53 AM 43.0 °F 37.2 °F 30.9 °F 62% 30.10 in 10.0 mi SW 10.4 mph - N/A   Overcast
8:53 AM 44.1 °F 39.0 °F 30.9 °F 60% 30.10 in 10.0 mi WSW 9.2 mph - N/A   Overcast
9:53 AM 44.1 °F 39.0 °F 30.9 °F 60% 30.10 in 10.0 mi SW 9.2 mph - N/A   Overcast
10:53 AM 44.1 °F 40.8 °F 34.0 °F 68% 30.10 in 10.0 mi WSW 5.8 mph - 0.00 in   Overcast
11:53 AM 44.1 °F 39.0 °F 37.9 °F 79% 30.10 in 10.0 mi WNW 9.2 mph - 0.01 in Rain Light Rain
12:17 PM 42.8 °F 36.6 °F 37.4 °F 81% 30.07 in 10.0 mi NW 11.5 mph - 0.01 in Rain Light Rain
12:53 PM 41.0 °F 33.1 °F 37.0 °F 86% 30.10 in 5.0 mi NW 15.0 mph 20.7 mph 0.04 in Rain Light Rain
1:53 PM 39.9 °F 32.9 °F 36.0 °F 86% 30.10 in 5.0 mi NW 11.5 mph - 0.02 in Rain Light Rain
2:53 PM 37.0 °F 30.4 °F 34.0 °F 89% 30.12 in 5.0 mi NNW 9.2 mph - 0.04 in Rain Rain
3:23 PM 33.8 °F 23.9 °F 30.2 °F 87% 30.12 in 0.8 mi North 15.0 mph - 0.03 in Snow Light Snow
3:39 PM 33.8 °F 23.9 °F 30.2 °F 87% 30.14 in 1.0 mi North 15.0 mph 19.6 mph 0.03 in Snow Light Snow
3:53 PM 33.1 °F 23.9 °F 30.9 °F 92% 30.17 in 1.2 mi North 12.7 mph - 0.03 in Snow Light Snow
4:53 PM 32.0 °F 22.1 °F 28.9 °F 88% 30.21 in 1.0 mi North 13.8 mph 21.9 mph 0.00 in Snow Light Snow
5:50 PM 30.2 °F 18.9 °F 26.6 °F 86% 30.22 in 3.0 mi North 16.1 mph - 0.00 in Snow Light Snow
5:53 PM 30.0 °F 18.7 °F 27.0 °F 88% 30.25 in 4.0 mi North 16.1 mph - 0.00 in Snow Light Snow
6:05 PM 30.2 °F 20.2 °F 26.6 °F 86% 30.22 in 4.0 mi North 12.7 mph 23.0 mph 0.00 in Snow Light Snow
6:11 PM 30.2 °F 19.8 °F 24.8 °F 80% 30.22 in 6.0 mi North 13.8 mph 20.7 mph 0.00 in Snow Light Snow
6:53 PM 30.0 °F 19.5 °F 24.1 °F 79% 30.27 in 10.0 mi North 13.8 mph - 0.00 in   Overcast
7:53 PM 28.9 °F 18.2 °F 21.0 °F 72% 30.32 in 10.0 mi North 13.8 mph 20.7 mph N/A   Clear
8:53 PM 28.9 °F 18.2 °F 19.0 °F 67% 30.33 in 10.0 mi North 13.8 mph 19.6 mph N/A   Scattered Clouds
9:53 PM 28.0 °F 18.6 °F 19.9 °F 72% 30.36 in 10.0 mi North 10.4 mph - N/A   Mostly Cloudy
10:53 PM 27.0 °F 18.0 °F 19.0 °F 72% 30.38 in 10.0 mi North 9.2 mph - N/A   Clear
11:53 PM 26.1 °F 16.8 °F 19.0 °F 75% 30.40 in 10.0 mi NNW 9.2 mph - N/A   Clear